,,Stat1,,Stat2,,Stat3,,Stat4,,Wind1,,Wind1,
time,status,PR1M_SUM,status,RH1M_AVG,status,SR1M_AVG,status,TA1M_AVG,status,W1dAve1m,status,W1sAve1m,
1999-12-10, 00:01:00,VALID,0,VALID,98.1869,VALID,0,VALID,19.2911,VALID,83,VALID,1.22841,
1999-12-10, 00:02:00,VALID,0,VALID,98.2022,VALID,0,VALID,19.2647,VALID,84,VALID,1.48057,
1999-12-10, 00:03:00,VALID,0,VALID,98.2327,VALID,0,VALID,19.2749,VALID,85,VALID,1.03801,
1999-12-10, 00:04:01,VALID,0,VALID,98.2353,VALID,0,VALID,19.262,VALID,101,VALID,0.99359,
1999-12-10, 00:05:00,VALID,0,VALID,98.1564,VALID,0,VALID,19.2394,VALID,79,VALID,0.214638,
1999-12-10, 00:06:00,VALID,0,VALID,98.1157,VALID,-0.0509425,VALID,19.2234,VALID,81,VALID,0.960304,
1999-12-10, 00:07:00,VALID,0,VALID,98.1157,VALID,-0.0509425,VALID,19.2403,VALID,59,VALID,1.06811,
1999-12-10, 00:08:00,VALID,0,VALID,98.1335,VALID,0,VALID,19.2299,VALID,37,VALID,0.517525,
1999-12-10, 00:09:00,VALID,0,VALID,98.1704,VALID,-0.0169808,VALID,19.2394,VALID,37,VALID,0.150288,
1999-12-10, 00:10:00,VALID,0,VALID,98.2124,VALID,-0.0339617,VALID,19.253,VALID,59,VALID,0.0260417,
1999-12-10, 00:11:00,VALID,0,VALID,98.2861,VALID,-0.0339617,VALID,19.2525,VALID,59,VALID,0,
1999-12-10, 00:12:00,VALID,0,VALID,98.379,VALID,-0.0339617,VALID,19.2622,VALID,58,VALID,0.00123355,
1999-12-10, 00:13:00,VALID,0,VALID,98.2963,VALID,-0.0169808,VALID,19.2622,VALID,80,VALID,0.214744,
1999-12-10, 00:14:00,VALID,0,VALID,98.2162,VALID,-0.0849042,VALID,19.2689,VALID,92,VALID,0.684961,
1999-12-10, 00:15:01,VALID,0,VALID,98.1755,VALID,-0.0509425,VALID,19.2592,VALID,77,VALID,0.628701,
1999-12-10, 00:16:00,VALID,0,VALID,98.0661,VALID,-0.0849042,VALID,19.2525,VALID,87,VALID,1.02268,
1999-12-10, 00:17:00,VALID,0,VALID,98.0598,VALID,-0.0679233,VALID,19.2597,VALID,88,VALID,1.04955,
1999-12-10, 00:18:00,VALID,0,VALID,98.0369,VALID,-0.0849042,VALID,19.2334,VALID,96,VALID,0.890214,
1999-12-10, 00:19:00,VALID,0,VALID,98.1196,VALID,-0.0169808,VALID,19.2137,VALID,104,VALID,0.599507,
1999-12-10, 00:20:00,VALID,0,VALID,98.1539,VALID,0,VALID,19.214,VALID,107,VALID,0.407813,
1999-12-10, 00:21:00,VALID,0,VALID,98.323,VALID,-0.0339617,VALID,19.2331,VALID,120,VALID,0.24399,
1999-12-10, 00:22:00,VALID,0,VALID,98.2391,VALID,-0.101885,VALID,19.2204,VALID,121,VALID,0.328336,
1999-12-10, 00:23:00,VALID,0,VALID,98.1971,VALID,-0.0679233,VALID,19.2433,VALID,113,VALID,0.618215,
1999-12-10, 00:24:00,VALID,0,VALID,98.1971,VALID,-0.0849042,VALID,19.2784,VALID,114,VALID,0.507031,
1999-12-10, 00:25:01,VALID,0,VALID,98.0814,VALID,-0.0679233,VALID,19.3013,VALID,113,VALID,0.496299,
1999-12-10, 00:26:01,VALID,0,VALID,98.0522,VALID,-0.101885,VALID,19.3177,VALID,83,VALID,0.162829,
1999-12-10, 00:27:00,VALID,0,VALID,97.9199,VALID,-0.0679233,VALID,19.3301,VALID,88,VALID,0,
1999-12-10, 00:28:00,VALID,0,VALID,97.8576,VALID,-0.0849042,VALID,19.3401,VALID,105,VALID,0.0678354,
1999-12-10, 00:29:00,VALID,0,VALID,97.9275,VALID,-0.0849042,VALID,19.3726,VALID,81,VALID,0.905469,
1999-12-10, 00:30:00,VALID,0,VALID,98.1323,VALID,-0.0679233,VALID,19.4343,VALID,96,VALID,0.957237,
1999-12-10, 00:31:00,VALID,0,VALID,98.0827,VALID,-0.0679233,VALID,19.4405,VALID,95,VALID,0.981908,
1999-12-10, 00:32:00,VALID,0,VALID,98.0344,VALID,-0.0169808,VALID,19.4438,VALID,92,VALID,0.978365,
1999-12-10, 00:33:00,VALID,0,VALID,98.2048,VALID,-0.0849042,VALID,19.4853,VALID,91,VALID,1.08086,
1999-12-10, 00:34:00,VALID,0,VALID,98.2518,VALID,-0.0509425,VALID,19.5117,VALID,91,VALID,1.06373,
1999-12-10, 00:35:00,VALID,0,VALID,98.3624,VALID,-0.118866,VALID,19.5537,VALID,93,VALID,0.485243,
1999-12-10, 00:36:01,VALID,0,VALID,98.3383,VALID,-0.0679233,VALID,19.5696,VALID,93,VALID,0.271234,
1999-12-10, 00:37:01,VALID,0,VALID,98.3612,VALID,-0.0849042,VALID,19.6149,VALID,94,VALID,0,
1999-12-10, 00:38:00,VALID,0,VALID,98.2849,VALID,-0.0339617,VALID,19.6213,VALID,94,VALID,0,
1999-12-10, 00:39:00,VALID,0,VALID,98.2416,VALID,-0.0509425,VALID,19.634,VALID,94,VALID,0,
1999-12-10, 00:40:00,VALID,0,VALID,98.173,VALID,-0.0339617,VALID,19.6534,VALID,103,VALID,0,
1999-12-10, 00:41:00,VALID,0,VALID,98.1437,VALID,-0.0509425,VALID,19.6562,VALID,94,VALID,0,
1999-12-10, 00:42:00,VALID,0,VALID,98.1552,VALID,-0.0679233,VALID,19.6594,VALID,108,VALID,0,
1999-12-10, 00:43:00,VALID,0,VALID,98.309,VALID,-0.0679233,VALID,19.692,VALID,97,VALID,0,
1999-12-10, 00:44:00,VALID,0,VALID,98.3561,VALID,-0.0679233,VALID,19.7052,VALID,84,VALID,0.41867,
1999-12-10, 00:45:00,VALID,0,VALID,98.262,VALID,-0.101885,VALID,19.6798,VALID,77,VALID,0.442845,
1999-12-10, 00:46:00,VALID,0,VALID,98.1984,VALID,-0.101885,VALID,19.6502,VALID,79,VALID,0.0558894,
1999-12-10, 00:47:00,VALID,0,VALID,98.2124,VALID,-0.0849042,VALID,19.6442,VALID,53,VALID,0.535684,
1999-12-10, 00:48:00,VALID,0,VALID,98.3014,VALID,-0.0509425,VALID,19.6569,VALID,37,VALID,0.482227,
1999-12-10, 00:49:00,VALID,0,VALID,98.3497,VALID,-0.0679233,VALID,19.6502,VALID,36,VALID,0.109581,
1999-12-10, 00:50:00,VALID,0,VALID,98.3637,VALID,-0.0679233,VALID,19.6472,VALID,12,VALID,0,
1999-12-10, 00:51:00,VALID,0,VALID,98.4781,VALID,-0.0679233,VALID,19.6599,VALID,304,VALID,0,
1999-12-10, 00:52:00,VALID,0,VALID,98.529,VALID,-0.0509425,VALID,19.6731,VALID,305,VALID,0,
1999-12-10, 00:53:00,VALID,0,VALID,98.6346,VALID,-0.0509425,VALID,19.6887,VALID,99,VALID,0.000585938,
1999-12-10, 00:54:00,VALID,0,VALID,98.6943,VALID,-0.0679233,VALID,19.6989,VALID,91,VALID,0.787861,
1999-12-10, 00:55:00,VALID,0,VALID,98.7388,VALID,-0.0509425,VALID,19.7047,VALID,96,VALID,0.657452,
1999-12-10, 00:56:00,VALID,0,VALID,98.7452,VALID,0,VALID,19.7009,VALID,100,VALID,0.876234,
1999-12-10, 00:57:00,VALID,0,VALID,98.8202,VALID,0.0169808,VALID,19.7211,VALID,92,VALID,1.22376,
1999-12-10, 00:58:00,VALID,0,VALID,98.6905,VALID,0,VALID,19.6626,VALID,96,VALID,1.45453,
1999-12-10, 00:59:00,VALID,0,VALID,98.7986,VALID,0.0169808,VALID,19.6751,VALID,93,VALID,1.20621,
1999-12-10, 01:00:00,VALID,0,VALID,98.6651,VALID,0,VALID,19.6305,VALID,91,VALID,1.22383,
1999-12-10, 01:01:00,VALID,0,VALID,98.4095,VALID,0.0339617,VALID,19.5746,VALID,81,VALID,1.01372,
1999-12-10, 01:02:00,VALID,0,VALID,98.2327,VALID,0,VALID,19.585,VALID,96,VALID,1.08173,
1999-12-10, 01:03:00,VALID,0,VALID,98.262,VALID,0.0339617,VALID,19.6109,VALID,86,VALID,0.693359,
1999-12-10, 01:04:00,VALID,0,VALID,98.1157,VALID,0.0169808,VALID,19.5845,VALID,16,VALID,0.491602,
1999-12-10, 01:05:00,VALID,0,VALID,97.9021,VALID,0,VALID,19.5619,VALID,329,VALID,0.253906,
1999-12-10, 01:06:00,VALID,0,VALID,98.0242,VALID,0.0169808,VALID,19.5786,VALID,92,VALID,0.465345,
1999-12-10, 01:07:00,VALID,0,VALID,98.1666,VALID,0,VALID,19.601,VALID,97,VALID,1.03733,
1999-12-10, 01:08:00,VALID,0,VALID,98.2785,VALID,0,VALID,19.6039,VALID,101,VALID,0.791211,
1999-12-10, 01:09:01,VALID,0,VALID,98.3256,VALID,0.0339617,VALID,19.6079,VALID,96,VALID,0.627804,
1999-12-10, 01:10:00,VALID,0,VALID,98.2785,VALID,0,VALID,19.5813,VALID,91,VALID,0.831292,
1999-12-10, 01:11:00,VALID,0,VALID,98.0483,VALID,0,VALID,19.5525,VALID,55,VALID,0.660056,
1999-12-10, 01:12:00,VALID,0,VALID,97.9695,VALID,0,VALID,19.5296,VALID,63,VALID,0.40076,
1999-12-10, 01:13:00,VALID,0,VALID,97.9886,VALID,0.0509425,VALID,19.5166,VALID,68,VALID,0.25,
1999-12-10, 01:14:00,VALID,0,VALID,97.9746,VALID,0.0169808,VALID,19.4843,VALID,88,VALID,1.54587,
1999-12-10, 01:15:00,VALID,0,VALID,98.1958,VALID,0,VALID,19.4716,VALID,91,VALID,1.71354,
1999-12-10, 01:16:00,VALID,0,VALID,98.4146,VALID,0.0169808,VALID,19.4619,VALID,86,VALID,1.3935,
1999-12-10, 01:17:00,VALID,0,VALID,98.4934,VALID,0,VALID,19.4366,VALID,84,VALID,1.51142,
1999-12-10, 01:18:00,VALID,0,VALID,98.6651,VALID,0.0169808,VALID,19.4199,VALID,90,VALID,1.84297,
1999-12-10, 01:19:00,VALID,0,VALID,98.721,VALID,0.0169808,VALID,19.404,VALID,83,VALID,1.53248,
1999-12-10, 01:20:01,VALID,0,VALID,98.7592,VALID,0,VALID,19.3911,VALID,84,VALID,1.94455,
1999-12-10, 01:21:00,VALID,0,VALID,98.7795,VALID,0.0169808,VALID,19.3682,VALID,77,VALID,1.94305,
1999-12-10, 01:22:00,VALID,0,VALID,98.8418,VALID,0,VALID,19.355,VALID,94,VALID,1.62274,
1999-12-10, 01:23:00,VALID,0,VALID,98.9029,VALID,0,VALID,19.362,VALID,92,VALID,1.3014,
1999-12-10, 01:24:00,VALID,0,VALID,98.9804,VALID,0,VALID,19.3423,VALID,91,VALID,1.11563,
1999-12-10, 01:25:00,VALID,0,VALID,98.9741,VALID,0,VALID,19.3329,VALID,107,VALID,1.33413,
1999-12-10, 01:26:00,VALID,0,VALID,98.8914,VALID,0,VALID,19.3105,VALID,94,VALID,1.5171,
1999-12-10, 01:27:00,VALID,0,VALID,98.9728,VALID,0,VALID,19.307,VALID,87,VALID,1.23931,
1999-12-10, 01:28:00,VALID,0,VALID,98.941,VALID,0,VALID,19.3008,VALID,95,VALID,1.58359,
1999-12-10, 01:29:00,VALID,0,VALID,98.9258,VALID,0,VALID,19.3038,VALID,78,VALID,1.07155,
1999-12-10, 01:30:00,VALID,0,VALID,98.81,VALID,0,VALID,19.2714,VALID,67,VALID,0.826275,
1999-12-10, 01:31:01,VALID,0,VALID,98.81,VALID,0,VALID,19.2781,VALID,88,VALID,0.907051,
1999-12-10, 01:32:00,VALID,0,VALID,98.8164,VALID,-0.0169808,VALID,19.2781,VALID,92,VALID,0.992378,
1999-12-10, 01:33:00,VALID,0,VALID,98.8685,VALID,0,VALID,19.2677,VALID,100,VALID,1.26836,
1999-12-10, 01:34:00,VALID,0,VALID,98.88,VALID,0.0509425,VALID,19.2744,VALID,96,VALID,0.833882,
1999-12-10, 01:35:00,VALID,0,VALID,98.8075,VALID,0.0169808,VALID,19.2518,VALID,108,VALID,0.308594,
1999-12-10, 01:36:00,VALID,0,VALID,98.5074,VALID,0,VALID,19.204,VALID,62,VALID,0.719151,
1999-12-10, 01:37:00,VALID,0,VALID,98.1882,VALID,0,VALID,19.1846,VALID,73,VALID,1.18668,
1999-12-10, 01:38:00,VALID,0,VALID,98.1246,VALID,-0.0169808,VALID,19.1839,VALID,93,VALID,1.48294,
1999-12-10, 01:39:00,VALID,0,VALID,97.9517,VALID,0,VALID,19.2165,VALID,90,VALID,1.16558,
1999-12-10, 01:40:00,VALID,0,VALID,97.4507,VALID,0.0169808,VALID,19.1971,VALID,57,VALID,1.18409,
1999-12-10, 01:41:01,VALID,0,VALID,97.4507,VALID,0.0509425,VALID,19.2356,VALID,102,VALID,0.781822,
1999-12-10, 01:42:00,VALID,0,VALID,97.5893,VALID,0,VALID,19.255,VALID,79,VALID,0.515625,
1999-12-10, 01:43:00,VALID,0,VALID,97.3909,VALID,0.0509425,VALID,19.2329,VALID,83,VALID,0.428711,
1999-12-10, 01:44:00,VALID,0,VALID,97.4087,VALID,0,VALID,19.2232,VALID,87,VALID,0.220189,
1999-12-10, 01:45:00,VALID,0,VALID,97.3057,VALID,0.0169808,VALID,19.2068,VALID,50,VALID,0.458826,
1999-12-10, 01:46:00,VALID,0,VALID,97.1684,VALID,-0.0169808,VALID,19.1876,VALID,66,VALID,0.384046,
1999-12-10, 01:47:00,VALID,0,VALID,97.3973,VALID,0.0169808,VALID,19.2008,VALID,108,VALID,0.439977,
1999-12-10, 01:48:00,VALID,0,VALID,97.457,VALID,0,VALID,19.1943,VALID,94,VALID,0.249599,
1999-12-10, 01:49:00,VALID,0,VALID,97.3261,VALID,0,VALID,19.1846,VALID,91,VALID,0.17023,
1999-12-10, 01:50:00,VALID,0,VALID,97.4062,VALID,0,VALID,19.1941,VALID,99,VALID,0.520032,
1999-12-10, 01:51:00,VALID,0,VALID,97.4367,VALID,0,VALID,19.2045,VALID,95,VALID,0.474029,
1999-12-10, 01:52:00,VALID,0,VALID,97.3947,VALID,0.0169808,VALID,19.2234,VALID,86,VALID,0.620508,
1999-12-10, 01:53:00,VALID,0,VALID,97.3528,VALID,0,VALID,19.2394,VALID,76,VALID,0.499383,
1999-12-10, 01:54:00,VALID,0,VALID,97.4291,VALID,0,VALID,19.2622,VALID,97,VALID,0.806424,
1999-12-10, 01:55:00,VALID,0,VALID,97.3223,VALID,0,VALID,19.2558,VALID,94,VALID,0.751402,
1999-12-10, 01:56:00,VALID,0,VALID,97.2116,VALID,0,VALID,19.2396,VALID,99,VALID,0.630409,
1999-12-10, 01:57:00,VALID,0,VALID,97.2663,VALID,0.0339617,VALID,19.2301,VALID,110,VALID,1.02129,
1999-12-10, 01:58:00,VALID,0,VALID,97.4825,VALID,0.0339617,VALID,19.2197,VALID,90,VALID,0.671274,
1999-12-10, 01:59:00,VALID,0,VALID,97.6287,VALID,0,VALID,19.2202,VALID,89,VALID,1.13181,
1999-12-10, 02:00:00,VALID,0,VALID,97.7851,VALID,0.0169808,VALID,19.2105,VALID,54,VALID,0.625617,
1999-12-10, 02:01:00,VALID,0,VALID,97.7788,VALID,0.0169808,VALID,19.1946,VALID,84,VALID,0.722957,
1999-12-10, 02:02:00,VALID,0,VALID,97.9097,VALID,0.0339617,VALID,19.1779,VALID,108,VALID,0.514824,
1999-12-10, 02:03:01,VALID,0,VALID,97.9326,VALID,0.0339617,VALID,19.1749,VALID,84,VALID,0.971217,
1999-12-10, 02:04:00,VALID,0,VALID,97.9822,VALID,0.0679233,VALID,19.1525,VALID,74,VALID,1.10938,
1999-12-10, 02:05:00,VALID,0,VALID,98.1068,VALID,0,VALID,19.1327,VALID,80,VALID,1.16491,
1999-12-10, 02:06:00,VALID,0,VALID,98.1539,VALID,0.0339617,VALID,19.1197,VALID,89,VALID,0.997596,
1999-12-10, 02:07:00,VALID,0,VALID,98.2734,VALID,0.0509425,VALID,19.1133,VALID,94,VALID,1.16758,
1999-12-10, 02:08:00,VALID,0,VALID,98.3217,VALID,0.0169808,VALID,19.107,VALID,90,VALID,0.95,
1999-12-10, 02:09:00,VALID,0,VALID,98.384,VALID,0.0339617,VALID,19.1103,VALID,81,VALID,1.17246,
1999-12-10, 02:10:00,VALID,0,VALID,98.3637,VALID,0.0509425,VALID,19.0837,VALID,49,VALID,0.966346,
1999-12-10, 02:11:00,VALID,0,VALID,98.3116,VALID,0.0339617,VALID,19.1066,VALID,63,VALID,0.373915,
1999-12-10, 02:12:00,VALID,0,VALID,98.2416,VALID,0.0339617,VALID,19.1299,VALID,77,VALID,0.201758,
1999-12-10, 02:13:00,VALID,0,VALID,98.1501,VALID,0.0339617,VALID,19.1163,VALID,53,VALID,0,
1999-12-10, 02:14:00,VALID,0,VALID,98.1653,VALID,0.0339617,VALID,19.1232,VALID,57,VALID,0,
1999-12-10, 02:15:00,VALID,0,VALID,98.2276,VALID,0.0169808,VALID,19.1262,VALID,53,VALID,0,
1999-12-10, 02:16:00,VALID,0,VALID,98.1793,VALID,0.0509425,VALID,19.1135,VALID,65,VALID,0,
1999-12-10, 02:17:00,VALID,0,VALID,98.1844,VALID,0.0339617,VALID,19.1135,VALID,84,VALID,0,
1999-12-10, 02:18:00,VALID,0,VALID,98.1539,VALID,0.0339617,VALID,19.1068,VALID,75,VALID,0,
1999-12-10, 02:19:00,VALID,0,VALID,98.1119,VALID,0.0339617,VALID,19.1068,VALID,91,VALID,0.00861378,
1999-12-10, 02:20:00,VALID,0,VALID,98.089,VALID,0.0169808,VALID,19.12,VALID,91,VALID,1.38816,
1999-12-10, 02:21:00,VALID,0,VALID,97.9975,VALID,0.0849042,VALID,19.1036,VALID,81,VALID,1.05449,
1999-12-10, 02:22:00,VALID,0,VALID,97.972,VALID,0.0339617,VALID,19.1006,VALID,78,VALID,0.818109,
1999-12-10, 02:23:00,VALID,0,VALID,97.9275,VALID,0.0169808,VALID,19.0969,VALID,74,VALID,0.717105,
1999-12-10, 02:24:00,VALID,0,VALID,97.8347,VALID,0.0679233,VALID,19.0683,VALID,86,VALID,0.463796,
1999-12-10, 02:25:00,VALID,0,VALID,97.9492,VALID,-0.0339617,VALID,19.072,VALID,78,VALID,0.526521,
1999-12-10, 02:26:00,VALID,0,VALID,97.9835,VALID,-0.0849042,VALID,19.0667,VALID,89,VALID,0.616365,
1999-12-10, 02:27:00,VALID,0,VALID,98.0394,VALID,-0.0679233,VALID,19.0667,VALID,79,VALID,0.859375,
1999-12-10, 02:28:00,VALID,0,VALID,97.986,VALID,-0.0849042,VALID,19.0635,VALID,77,VALID,0.229883,
1999-12-10, 02:29:00,VALID,0,VALID,97.9975,VALID,-0.101885,VALID,19.0632,VALID,84,VALID,0.00200321,
1999-12-10, 02:30:00,VALID,0,VALID,97.9492,VALID,-0.0679233,VALID,19.0637,VALID,56,VALID,0.136402,
1999-12-10, 02:31:00,VALID,0,VALID,98.0153,VALID,-0.0849042,VALID,19.0471,VALID,37,VALID,0.419819,
1999-12-10, 02:32:00,VALID,0,VALID,98.0483,VALID,-0.0849042,VALID,19.0568,VALID,44,VALID,0.0714844,
1999-12-10, 02:33:00,VALID,0,VALID,98.1043,VALID,-0.0849042,VALID,19.0406,VALID,64,VALID,0,
1999-12-10, 02:34:00,VALID,0,VALID,98.2009,VALID,-0.0679233,VALID,19.0538,VALID,94,VALID,0,
1999-12-10, 02:35:00,VALID,0,VALID,98.1933,VALID,-0.101885,VALID,19.0443,VALID,96,VALID,0,
1999-12-10, 02:36:00,VALID,0,VALID,98.0572,VALID,-0.101885,VALID,19.0214,VALID,97,VALID,0,
1999-12-10, 02:37:01,VALID,0,VALID,97.9746,VALID,-0.0849042,VALID,19.002,VALID,81,VALID,0,
1999-12-10, 02:38:00,VALID,0,VALID,97.9428,VALID,-0.118866,VALID,18.9729,VALID,88,VALID,0,
1999-12-10, 02:39:00,VALID,0,VALID,98.028,VALID,-0.0849042,VALID,18.9762,VALID,76,VALID,0,
1999-12-10, 02:40:00,VALID,0,VALID,98.1742,VALID,-0.0679233,VALID,18.9822,VALID,72,VALID,0,
1999-12-10, 02:41:00,VALID,0,VALID,98.2162,VALID,-0.0679233,VALID,18.9956,VALID,91,VALID,0,
1999-12-10, 02:42:00,VALID,0,VALID,98.1819,VALID,-0.0849042,VALID,18.9859,VALID,111,VALID,0,
1999-12-10, 02:43:00,VALID,0,VALID,98.1819,VALID,-0.101885,VALID,18.9891,VALID,111,VALID,0,
1999-12-10, 02:44:00,VALID,0,VALID,98.1246,VALID,-0.0679233,VALID,18.97,VALID,111,VALID,0,
1999-12-10, 02:45:00,VALID,0,VALID,98.0801,VALID,-0.0849042,VALID,18.9635,VALID,111,VALID,0,
1999-12-10, 02:46:00,VALID,0,VALID,98.0038,VALID,-0.0849042,VALID,18.9473,VALID,111,VALID,0,
1999-12-10, 02:47:00,VALID,0,VALID,97.864,VALID,-0.0849042,VALID,18.9279,VALID,110,VALID,0,
1999-12-10, 02:48:01,VALID,0,VALID,97.7648,VALID,-0.0849042,VALID,18.8958,VALID,110,VALID,0,
1999-12-10, 02:49:00,VALID,0,VALID,97.5995,VALID,-0.0849042,VALID,18.8376,VALID,103,VALID,0,
1999-12-10, 02:50:00,VALID,0,VALID,97.8678,VALID,-0.101885,VALID,18.8439,VALID,66,VALID,0,
1999-12-10, 02:51:00,VALID,0,VALID,98.0712,VALID,-0.0849042,VALID,18.8508,VALID,73,VALID,0,
1999-12-10, 02:52:00,VALID,0,VALID,98.2213,VALID,-0.0849042,VALID,18.8605,VALID,83,VALID,0,
1999-12-10, 02:53:00,VALID,0,VALID,98.3306,VALID,-0.101885,VALID,18.8732,VALID,30,VALID,0,
1999-12-10, 02:54:00,VALID,0,VALID,98.4438,VALID,-0.0849042,VALID,18.8958,VALID,337,VALID,0,
1999-12-10, 02:55:00,VALID,0,VALID,98.4921,VALID,-0.0509425,VALID,18.9108,VALID,311,VALID,0,
1999-12-10, 02:56:00,VALID,0,VALID,98.44,VALID,-0.101885,VALID,18.9397,VALID,6,VALID,0,
1999-12-10, 02:57:00,VALID,0,VALID,98.4273,VALID,-0.0509425,VALID,18.9625,VALID,325,VALID,0,
1999-12-10, 02:58:00,VALID,0,VALID,98.4171,VALID,0,VALID,18.9815,VALID,308,VALID,0,
1999-12-10, 02:59:01,VALID,0,VALID,98.3904,VALID,-0.0509425,VALID,18.9946,VALID,304,VALID,0,
1999-12-10, 03:00:00,VALID,0,VALID,98.3128,VALID,-0.0849042,VALID,18.9976,VALID,304,VALID,0,
1999-12-10, 03:01:00,VALID,0,VALID,98.295,VALID,-0.0339617,VALID,19.021,VALID,306,VALID,0,
1999-12-10, 03:02:00,VALID,0,VALID,98.3968,VALID,-0.0509425,VALID,19.0535,VALID,309,VALID,0,
1999-12-10, 03:03:00,VALID,0,VALID,98.4692,VALID,-0.0509425,VALID,19.0496,VALID,315,VALID,0,
1999-12-10, 03:04:00,VALID,0,VALID,98.5672,VALID,-0.0509425,VALID,19.0627,VALID,308,VALID,0,
1999-12-10, 03:05:00,VALID,0,VALID,98.6333,VALID,0,VALID,19.0558,VALID,301,VALID,0,
1999-12-10, 03:06:00,VALID,0,VALID,98.6841,VALID,0,VALID,19.0556,VALID,292,VALID,0,
1999-12-10, 03:07:00,VALID,0,VALID,98.6791,VALID,-0.0339617,VALID,19.0588,VALID,292,VALID,0,
1999-12-10, 03:08:00,VALID,0,VALID,98.646,VALID,-0.0339617,VALID,19.0627,VALID,287,VALID,0,
1999-12-10, 03:09:01,VALID,0,VALID,98.646,VALID,-0.0339617,VALID,19.0695,VALID,215,VALID,0,
1999-12-10, 03:10:01,VALID,0,VALID,98.618,VALID,-0.0339617,VALID,19.0655,VALID,181,VALID,0,
1999-12-10, 03:11:00,VALID,0,VALID,98.5252,VALID,-0.0339617,VALID,19.0824,VALID,170,VALID,0,
1999-12-10, 03:12:00,VALID,0,VALID,98.4807,VALID,-0.0169808,VALID,19.0757,VALID,187,VALID,0,
1999-12-10, 03:13:00,VALID,0,VALID,98.4489,VALID,-0.0679233,VALID,19.0916,VALID,182,VALID,0,
1999-12-10, 03:14:00,VALID,0,VALID,98.5074,VALID,-0.0509425,VALID,19.1272,VALID,318,VALID,0,
1999-12-10, 03:15:00,VALID,0,VALID,98.4972,VALID,-0.0679233,VALID,19.15,VALID,303,VALID,0,
1999-12-10, 03:16:00,VALID,0,VALID,98.379,VALID,-0.0339617,VALID,19.1334,VALID,285,VALID,0,
1999-12-10, 03:17:00,VALID,0,VALID,98.3624,VALID,-0.0339617,VALID,19.1433,VALID,285,VALID,0,
1999-12-10, 03:18:00,VALID,0,VALID,98.4324,VALID,-0.0169808,VALID,19.1597,VALID,54,VALID,0,
1999-12-10, 03:19:00,VALID,0,VALID,98.4514,VALID,-0.0169808,VALID,19.1861,VALID,95,VALID,0,
1999-12-10, 03:20:01,VALID,0,VALID,98.4425,VALID,-0.0169808,VALID,19.1724,VALID,94,VALID,0,
1999-12-10, 03:21:01,VALID,0,VALID,98.1933,VALID,-0.0679233,VALID,19.1341,VALID,22,VALID,0.332237,
1999-12-10, 03:22:00,VALID,0,VALID,97.953,VALID,-0.0339617,VALID,19.1306,VALID,44,VALID,0.416667,
1999-12-10, 03:23:00,VALID,0,VALID,97.9288,VALID,-0.0509425,VALID,19.1463,VALID,97,VALID,0.644431,
1999-12-10, 03:24:00,VALID,0,VALID,97.78,VALID,-0.0509425,VALID,19.1304,VALID,76,VALID,0.896998,
1999-12-10, 03:25:00,VALID,0,VALID,97.6745,VALID,-0.0509425,VALID,19.1018,VALID,83,VALID,1.02063,
1999-12-10, 03:26:00,VALID,0,VALID,97.7749,VALID,-0.0679233,VALID,19.0715,VALID,349,VALID,0.384961,
1999-12-10, 03:27:00,VALID,0,VALID,97.9275,VALID,-0.0339617,VALID,19.0854,VALID,270,VALID,0.147204,
1999-12-10, 03:28:00,VALID,0,VALID,98.0433,VALID,-0.0169808,VALID,19.069,VALID,228,VALID,0.118331,
1999-12-10, 03:29:00,VALID,0,VALID,98.178,VALID,-0.0339617,VALID,19.066,VALID,96,VALID,0.542558,
1999-12-10, 03:30:00,VALID,0,VALID,98.2009,VALID,-0.0679233,VALID,19.0429,VALID,100,VALID,0.31065,
1999-12-10, 03:31:01,VALID,0,VALID,98.262,VALID,-0.0849042,VALID,19.0466,VALID,89,VALID,0.280428,
1999-12-10, 03:32:01,VALID,0,VALID,98.3192,VALID,-0.0169808,VALID,19.0523,VALID,114,VALID,0,
1999-12-10, 03:33:00,VALID,0,VALID,98.3586,VALID,-0.0849042,VALID,19.0724,VALID,110,VALID,0,
1999-12-10, 03:34:00,VALID,0,VALID,98.3383,VALID,-0.0339617,VALID,19.0556,VALID,112,VALID,0,
1999-12-10, 03:35:00,VALID,0,VALID,98.2772,VALID,-0.0679233,VALID,19.0364,VALID,118,VALID,0,
1999-12-10, 03:36:00,VALID,0,VALID,98.2213,VALID,-0.0509425,VALID,19.0307,VALID,103,VALID,0,
1999-12-10, 03:37:00,VALID,0,VALID,98.2098,VALID,-0.0339617,VALID,19.0173,VALID,105,VALID,0,
1999-12-10, 03:38:00,VALID,0,VALID,98.1488,VALID,-0.0509425,VALID,19.0115,VALID,104,VALID,0,
1999-12-10, 03:39:00,VALID,0,VALID,98.145,VALID,-0.0509425,VALID,19.0016,VALID,104,VALID,0,
1999-12-10, 03:40:00,VALID,0,VALID,98.1221,VALID,-0.0339617,VALID,18.9951,VALID,104,VALID,0,
1999-12-10, 03:41:01,VALID,0,VALID,98.1819,VALID,0.0339617,VALID,18.9934,VALID,104,VALID,0,
1999-12-10, 03:42:00,VALID,0,VALID,98.1831,VALID,0.0339617,VALID,18.9837,VALID,110,VALID,0.0115132,
1999-12-10, 03:43:01,VALID,0,VALID,98.2035,VALID,0.0169808,VALID,18.9807,VALID,137,VALID,0.0495477,
1999-12-10, 03:44:00,VALID,0,VALID,98.2315,VALID,0.0339617,VALID,18.9743,VALID,133,VALID,0.409255,
1999-12-10, 03:45:00,VALID,0,VALID,98.2276,VALID,0.0339617,VALID,18.971,VALID,121,VALID,0.359786,
1999-12-10, 03:46:00,VALID,0,VALID,98.2225,VALID,0.0339617,VALID,18.974,VALID,105,VALID,0.119449,
1999-12-10, 03:47:00,VALID,0,VALID,98.2137,VALID,0,VALID,18.9574,VALID,77,VALID,0.223307,
1999-12-10, 03:48:00,VALID,0,VALID,98.2543,VALID,0.0339617,VALID,18.9678,VALID,107,VALID,0.0999599,
1999-12-10, 03:49:00,VALID,0,VALID,98.2493,VALID,0.0509425,VALID,18.9676,VALID,119,VALID,0,
1999-12-10, 03:50:00,VALID,0,VALID,98.2315,VALID,0.0339617,VALID,18.9606,VALID,118,VALID,0,
1999-12-10, 03:51:00,VALID,0,VALID,98.2022,VALID,0.0679233,VALID,18.9579,VALID,106,VALID,0.145703,
1999-12-10, 03:52:01,VALID,0,VALID,98.2925,VALID,0.0339617,VALID,18.9639,VALID,89,VALID,0.278166,
1999-12-10, 03:53:00,VALID,0,VALID,98.3599,VALID,0.0679233,VALID,18.9872,VALID,92,VALID,0.418919,
1999-12-10, 03:54:00,VALID,0,VALID,98.3586,VALID,0.0509425,VALID,18.9832,VALID,94,VALID,0.482319,
1999-12-10, 03:55:00,VALID,0,VALID,98.2645,VALID,0.0849042,VALID,18.9805,VALID,108,VALID,0.346037,
1999-12-10, 03:56:00,VALID,0,VALID,98.2416,VALID,0.0849042,VALID,18.9609,VALID,110,VALID,0.183293,
1999-12-10, 03:57:00,VALID,0,VALID,98.2149,VALID,0.0509425,VALID,18.9641,VALID,111,VALID,0.158717,
1999-12-10, 03:58:00,VALID,0,VALID,98.1666,VALID,0.0679233,VALID,18.9475,VALID,111,VALID,0,
1999-12-10, 03:59:00,VALID,0,VALID,98.1335,VALID,0.101885,VALID,18.938,VALID,111,VALID,0,
1999-12-10, 04:00:00,VALID,0,VALID,98.1946,VALID,0.101885,VALID,18.9306,VALID,99,VALID,0,
1999-12-10, 04:01:00,VALID,0,VALID,98.1679,VALID,0.0849042,VALID,18.9313,VALID,135,VALID,0,
1999-12-10, 04:02:00,VALID,0,VALID,98.0496,VALID,0.0509425,VALID,18.9214,VALID,139,VALID,0,
1999-12-10, 04:03:00,VALID,0,VALID,98.0839,VALID,0.0849042,VALID,18.9281,VALID,123,VALID,0,
1999-12-10, 04:04:01,VALID,0,VALID,98.0293,VALID,0.0849042,VALID,18.9285,VALID,116,VALID,0.342548,
1999-12-10, 04:05:00,VALID,0,VALID,98.0255,VALID,0.0679233,VALID,18.9151,VALID,87,VALID,0.372656,
1999-12-10, 04:06:00,VALID,0,VALID,98.0331,VALID,0.101885,VALID,18.9124,VALID,360,VALID,0.385216,
1999-12-10, 04:07:00,VALID,0,VALID,98.1348,VALID,0.0509425,VALID,18.9225,VALID,303,VALID,0.402244,
1999-12-10, 04:08:00,VALID,0,VALID,98.1183,VALID,0.101885,VALID,18.9191,VALID,289,VALID,0.332854,
1999-12-10, 04:09:00,VALID,0,VALID,98.1221,VALID,0.0849042,VALID,18.9126,VALID,266,VALID,0.153245,
1999-12-10, 04:10:00,VALID,0,VALID,97.9466,VALID,0.0679233,VALID,18.8798,VALID,158,VALID,0.325921,